Weather History for 93780 - November, 2013

Change the Weather History Date:

Saturday, November 16, 2013

  Actual Average Record
Temperature  
Mean Temperature 63 °F -  
Max Temperature 80 °F 64 °F - ()
Min Temperature 46 °F 46 °F - ()
Degree Days  
Heating Degree Days 2    
Growing Degree Days 13 (Base 50)    
Moisture  
Dew Point 50 °F    
Average Humidity 66    
Maximum Humidity 100    
Minimum Humidity 28    
Precipitation  
Precipitation 0.00 in - - ()
Sea Level Pressure  
Sea Level Pressure 29.80 in    
Wind  
Wind Speed 8 mph ()    
Max Wind Speed 21 mph    
Max Gust Speed 29 mph    
Visibility 6.0 miles    
Events      
T = Trace of Precipitation, MM = Missing Value Source: Averaged Metar Reports

Daily Weather History Graph

Daily Weather History Graph

Search for Another Location

Airport or City:

Trip Planner

Search our weather history database for the weather conditions in past years. The results will help you decide how hot, cold, wet, or windy it might be!

Date:

Astronomy

Nov. 16, 2013 Rise Set
Actual Time 5:54 AM NZDT 8:35 PM NZDT
Civil Twilight 5:21 AM NZDT 9:08 PM NZDT
Nautical Twilight 4:40 AM NZDT 9:49 PM NZDT
Astronomical Twilight 3:53 AM NZDT 10:37 PM NZDT
Moon 7:06 PM NZDT (11/16) 4:54 AM NZDT (11/16)
Length of Visible Light 15h 46m
Length of Day
14h 40m
Waxing Gibbous, 97% of the Moon is Illuminated
Nov 16
Waxing Gibbous
Nov 18
Full
Nov 26
Last Quarter
Dec 3
New
Dec 10
First Quarter

Hourly Weather History & Observations

Time (NZDT) Temp. Dew Point Humidity Pressure Visibility Wind Dir Wind Speed Gust Speed Precip Events Conditions
12:00 AM 51.8 °F 51.8 °F 100% 29.83 in 6.2 mi NNE 5.8 mph - N/A   Partly Cloudy
12:30 AM 53.6 °F 53.6 °F 100% 29.83 in 6.2 mi North 5.8 mph - N/A   Mostly Cloudy
1:00 AM 53.6 °F 53.6 °F 100% 29.83 in 6.2 mi NNE 5.8 mph - N/A   Overcast
1:30 AM 53.6 °F 51.8 °F 94% 29.80 in 6.2 mi NNE 5.8 mph - N/A   Mostly Cloudy
2:00 AM 53.6 °F 51.8 °F 94% 29.80 in 5.0 mi NE 5.8 mph - N/A   Mostly Cloudy
2:30 AM 53.6 °F 53.6 °F 100% 29.77 in 5.0 mi NE 4.6 mph - N/A   Partly Cloudy
3:00 AM 51.8 °F 51.8 °F 100% 29.77 in 6.2 mi NE 4.6 mph - N/A   Unknown
3:30 AM 51.8 °F 51.8 °F 100% 29.77 in 6.2 mi NNE 4.6 mph - N/A   Unknown
4:00 AM 53.6 °F 51.8 °F 94% 29.77 in 4.3 mi NE 6.9 mph - N/A   Unknown
4:30 AM 53.6 °F 51.8 °F 94% 29.77 in 5.0 mi NNE 4.6 mph - N/A   Unknown
5:00 AM 51.8 °F 50.0 °F 94% 29.77 in 4.3 mi NE 3.5 mph - N/A   Unknown
5:30 AM 48.2 °F 48.2 °F 100% 29.77 in 4.3 mi North 2.3 mph - N/A   Mist
6:00 AM 46.4 °F 46.4 °F 100% 29.77 in 5.0 mi NW 1.2 mph - N/A   Mist
6:30 AM 50.0 °F 48.2 °F 94% 29.77 in 6.2 mi ENE 3.5 mph - N/A   Unknown
7:00 AM 51.8 °F 50.0 °F 94% 29.77 in 6.2 mi North 4.6 mph - N/A   Unknown
7:30 AM 55.4 °F 51.8 °F 88% 29.77 in 6.2 mi ESE 4.6 mph - N/A   Unknown
8:00 AM 60.8 °F 51.8 °F 72% 29.77 in 6.2 mi ENE 4.6 mph - N/A   Unknown
8:30 AM 64.4 °F 50.0 °F 59% 29.77 in 6.2 mi North 3.5 mph - N/A   Unknown
9:00 AM 68.0 °F 48.2 °F 49% 29.77 in 6.2 mi NNW 4.6 mph - N/A   Unknown
9:30 AM 69.8 °F 46.4 °F 43% 29.77 in 6.2 mi NW 15.0 mph - N/A   Unknown
10:00 AM 71.6 °F 46.4 °F 41% 29.77 in 6.2 mi WNW 17.3 mph - N/A   Unknown
10:30 AM 69.8 °F 46.4 °F 43% 29.77 in 6.2 mi WNW 12.7 mph - N/A   Unknown
11:00 AM 71.6 °F 46.4 °F 41% 29.77 in 6.2 mi WNW 15.0 mph 26.5 mph N/A   Unknown
11:30 AM 73.4 °F 48.2 °F 41% 29.77 in 6.2 mi WNW 13.8 mph - N/A   Unknown
12:00 PM 77.0 °F 48.2 °F 36% 29.77 in 6.2 mi WNW 12.7 mph - N/A   Unknown
12:30 PM 77.0 °F 48.2 °F 36% 29.77 in 6.2 mi WNW 11.5 mph - N/A   Unknown
1:00 PM 78.8 °F 48.2 °F 34% 29.77 in 6.2 mi NW 16.1 mph - N/A   Unknown
1:30 PM 80.6 °F 48.2 °F 32% 29.77 in 6.2 mi NW 15.0 mph - N/A   Unknown
2:00 PM 78.8 °F 46.4 °F 32% 29.77 in 6.2 mi WNW 20.7 mph - N/A   Unknown
2:30 PM 78.8 °F 44.6 °F 30% 29.77 in 6.2 mi WNW 17.3 mph 28.8 mph N/A   Unknown
3:00 PM 80.6 °F 46.4 °F 30% 29.77 in 6.2 mi WNW 17.3 mph - N/A   Unknown
3:30 PM 80.6 °F 44.6 °F 28% 29.74 in 6.2 mi West 15.0 mph 26.5 mph N/A   Unknown
4:00 PM 80.6 °F 46.4 °F 30% 29.77 in 6.2 mi West 17.3 mph - N/A   Unknown
4:30 PM 80.6 °F 48.2 °F 32% 29.77 in 6.2 mi West 12.7 mph - N/A   Unknown
5:00 PM 80.6 °F 46.4 °F 30% 29.74 in 6.2 mi West 16.1 mph - N/A   Partly Cloudy
5:30 PM 80.6 °F 44.6 °F 28% 29.77 in 6.2 mi WNW 16.1 mph - N/A   Unknown
6:00 PM 78.8 °F 44.6 °F 30% 29.77 in 6.2 mi WNW 15.0 mph - N/A   Unknown
6:30 PM 78.8 °F 46.4 °F 32% 29.77 in 6.2 mi SW 9.2 mph - N/A   Partly Cloudy
7:00 PM 73.4 °F 50.0 °F 44% 29.80 in 6.2 mi ESE 10.4 mph - N/A   Unknown
7:30 PM 68.0 °F 55.4 °F 64% 29.83 in 6.2 mi SSW 12.7 mph - N/A   Unknown
8:00 PM 60.8 °F 53.6 °F 77% 29.86 in 6.2 mi SW 19.6 mph - N/A   Unknown
8:30 PM 59.0 °F 53.6 °F 82% 29.89 in 6.2 mi SW 17.3 mph - N/A   Partly Cloudy
9:00 PM 59.0 °F 53.6 °F 82% 29.89 in 6.2 mi SW 16.1 mph - N/A   Overcast
9:30 PM 57.2 °F 53.6 °F 88% 29.92 in 6.2 mi SW 15.0 mph - N/A   Overcast
10:00 PM 57.2 °F 51.8 °F 82% 29.95 in 6.2 mi SW 17.3 mph - N/A   Partly Cloudy
10:30 PM 57.2 °F 51.8 °F 82% 29.95 in 6.2 mi SW 16.1 mph - N/A   Unknown
11:00 PM 55.4 °F 51.8 °F 88% 29.98 in 6.2 mi WSW 17.3 mph - N/A   Unknown
11:30 PM 57.2 °F 51.8 °F 82% 29.98 in 6.2 mi SW 15.0 mph - N/A   Mostly Cloudy